#timestamp,LO_Frequency,Hit,StdDev 
1607730075.4,286047019.2,P
1607730095.2,286047019.3,P
1607730115.1,286047019.0,P
1607730116.0,286047019.0,Y
1607730135.8,286047002.2,P
1607730155.6,286047002.6,N
1607730175.5,286047002.1,N
1607730195.3,286047004.4,N
1607730215.2,286047004.0,N
1607730235.9,286047003.2,N
1607730255.7,286047001.4,N
1607730275.6,286047001.8,N
1607730295.4,286047003.3,N
1607730315.2,286047003.7,N
1607730335.1,286047005.7,N
1607730336.0,286047005.7,N
1607730385.9,286047007.2,E
1607730395.8,286047004.4,N
1607730415.6,286046998.3,P
1607730435.4,286046998.3,N
1607730455.3,286047000.7,N
1607730475.1,286046998.2,N
1607730495.9,286046998.2,N
1607730515.7,286047000.7,N
1607730535.5,286047002.8,N
1607730555.4,286047002.2,N
1607730575.2,286047002.8,N
1607730595.0,286047002.5,N
1607730596.0,286047002.5,N
1607730615.8,286047002.2,N
1607730635.6,286047002.3,N
1607730655.5,286047002.6,N
1607730675.3,286047003.7,N
1607730695.1,286047001.7,N
1607730715.9,286047001.7,N
1607730735.7,286047002.3,N
1607730755.5,286047004.0,N
1607730775.4,286047003.2,N
1607730795.2,286047004.7,N
1607730815.1,286047003.0,N
1607730816.0,286047003.0,N
1607730835.8,286047001.9,N
1607730855.6,286047001.0,N
1607730875.5,286047001.4,N
1607730895.3,286047001.4,N
1607730915.1,286047002.2,N
1607730935.9,286046999.7,N
1607730955.7,286046999.9,N
1607730975.6,286047000.8,N
1607730995.4,286046998.7,N
1607731015.2,286046998.5,N
1607731035.1,286046998.6,N
1607731036.0,286046998.6,N
1607731055.8,286046998.1,N
1607731075.6,286047000.3,N
1607731095.5,286046998.7,N
1607731115.3,286046999.1,N
1607731135.2,286046996.5,N
1607731155.9,286046996.7,N
1607731175.7,286046999.4,N
1607731195.6,286046999.4,N
